• In Netherlands
  • List of Countries
  • For 7 days
  • Water Temperature
  • Satellite Maps
  • Weather Map
  • Weather Widgets
  • user-avatar
    Login

    Hourly Weather Almelo

    Today, 15 August, Wednesday

    Time Temperature Precipitation Wind Pressure Humidity
    00:00 +16°C° 0 mm 2 mps 762 mmHg 92%
    01:00 +16°C° 0 mm 2 mps 762 mmHg 91%
    02:00 +16°C° 0 mm 2 mps 762 mmHg 91%
    03:00 +16°C° 0 mm 2 mps 761 mmHg 90%
    04:00 +16°C° 0 mm 3 mps 762 mmHg 87%
    05:00 +17°C° 0 mm 3 mps 762 mmHg 84%
    06:00 +18°C° 0 mm 3 mps 762 mmHg 80%
    07:00 +20°C° 0 mm 3 mps 762 mmHg 74%
    08:00 +22°C° 0 mm 4 mps 762 mmHg 68%
    09:00 +25°C° 0 mm 4 mps 762 mmHg 62%
    10:00 +25°C° 0.1 mm 4 mps 762 mmHg 61%
    11:00 +26°C° 0.1 mm 4 mps 762 mmHg 60%
    12:00 +26°C° 0.1 mm 4 mps 762 mmHg 59%
    13:00 +26°C° 0.1 mm 4 mps 762 mmHg 59%
    14:00 +27°C° 0.1 mm 4 mps 762 mmHg 58%
    15:00 +27°C° 0.1 mm 4 mps 762 mmHg 57%
    16:00 +26°C° 0 mm 4 mps 762 mmHg 61%
    17:00 +25°C° 0 mm 3 mps 762 mmHg 65%
    18:00 +24°C° 0 mm 3 mps 761 mmHg 69%
    19:00 +23°C° 0 mm 2 mps 762 mmHg 74%
    20:00 +20°C° 0 mm 2 mps 762 mmHg 80%
    21:00 +19°C° 0 mm 2 mps 762 mmHg 85%
    22:00 +18°C° 0 mm 2 mps 762 mmHg 87%
    23:00 +18°C° 0 mm 2 mps 762 mmHg 89%

    Tomorrow, 16 August, Thursday

    Time Temperature Precipitation Wind Pressure Humidity
    00:00 +17°C° 0 mm 2 mps 762 mmHg 90%
    01:00 +17°C° 0 mm 2 mps 761 mmHg 92%
    02:00 +17°C° 0 mm 2 mps 761 mmHg 93%
    03:00 +16°C° 0 mm 3 mps 761 mmHg 94%
    04:00 +17°C° 0 mm 3 mps 761 mmHg 91%
    05:00 +18°C° 0 mm 3 mps 761 mmHg 88%
    06:00 +18°C° 0 mm 4 mps 760 mmHg 85%
    07:00 +20°C° 0 mm 4 mps 760 mmHg 77%
    08:00 +22°C° 0 mm 5 mps 760 mmHg 68%
    09:00 +25°C° 0 mm 5 mps 760 mmHg 60%
    10:00 +26°C° 0 mm 5 mps 760 mmHg 56%
    11:00 +27°C° 0 mm 5 mps 759 mmHg 51%
    12:00 +28°C° 0 mm 5 mps 759 mmHg 47%
    13:00 +29°C° 0 mm 5 mps 759 mmHg 46%
    14:00 +29°C° 0 mm 5 mps 758 mmHg 45%
    15:00 +29°C° 0 mm 4 mps 758 mmHg 45%
    16:00 +28°C° 0 mm 4 mps 758 mmHg 50%
    17:00 +27°C° 0 mm 3 mps 758 mmHg 56%
    18:00 +25°C° 0 mm 3 mps 758 mmHg 62%
    19:00 +22°C° 0.5 mm 3 mps 758 mmHg 71%
    20:00 +21°C° 0.5 mm 3 mps 759 mmHg 79%
    21:00 +19°C° 0.5 mm 3 mps 759 mmHg 88%
    22:00 +18°C° 1.2 mm 2 mps 759 mmHg 90%
    23:00 +18°C° 1.2 mm 2 mps 759 mmHg 93%

    Day after tomorrow, 17 August, Friday

    Time Temperature Precipitation Wind Pressure Humidity
    00:00 +18°C° 1.2 mm 2 mps 759 mmHg 96%
    01:00 +17°C° 0.9 mm 2 mps 759 mmHg 96%
    02:00 +17°C° 0.9 mm 2 mps 760 mmHg 96%
    03:00 +17°C° 0.9 mm 2 mps 760 mmHg 96%
    04:00 +17°C° 0.3 mm 2 mps 760 mmHg 95%
    05:00 +17°C° 0.3 mm 2 mps 760 mmHg 93%
    06:00 +17°C° 0.3 mm 2 mps 760 mmHg 92%
    07:00 +18°C° 0 mm 2 mps 761 mmHg 83%
    08:00 +19°C° 0 mm 3 mps 761 mmHg 74%
    09:00 +21°C° 0 mm 3 mps 762 mmHg 65%
    10:00 +22°C° 0 mm 3 mps 762 mmHg 58%
    11:00 +24°C° 0 mm 3 mps 762 mmHg 51%
    12:00 +25°C° 0 mm 4 mps 762 mmHg 45%
    13:00 +24°C° 0 mm 3 mps 763 mmHg 46%
    14:00 +24°C° 0 mm 3 mps 763 mmHg 47%
    15:00 +24°C° 0 mm 3 mps 763 mmHg 49%
    16:00 +22°C° 0 mm 3 mps 763 mmHg 52%
    17:00 +21°C° 0 mm 3 mps 763 mmHg 56%
    18:00 +20°C° 0 mm 2 mps 763 mmHg 60%
    19:00 +19°C° 0 mm 2 mps 764 mmHg 65%
    20:00 +17°C° 0 mm 2 mps 764 mmHg 69%
    21:00 +16°C° 0 mm 1 mps 764 mmHg 74%
    22:00 +15°C° 0 mm 2 mps 764 mmHg 75%
    23:00 +15°C° 0 mm 2 mps 764 mmHg 76%

    18 August, Saturday

    Time Temperature Precipitation Wind Pressure Humidity
    00:00 +14°C° 0 mm 2 mps 764 mmHg 77%
    01:00 +14°C° 0 mm 2 mps 764 mmHg 77%
    02:00 +13°C° 0 mm 3 mps 764 mmHg 78%
    03:00 +13°C° 0 mm 3 mps 764 mmHg 79%
    04:00 +14°C° 0 mm 4 mps 764 mmHg 78%
    05:00 +14°C° 0 mm 4 mps 764 mmHg 78%
    06:00 +15°C° 0 mm 4 mps 764 mmHg 78%
    07:00 +17°C° 0 mm 5 mps 764 mmHg 73%
    08:00 +19°C° 0 mm 5 mps 764 mmHg 68%
    09:00 +21°C° 0 mm 6 mps 764 mmHg 63%
    10:00 +21°C° 0 mm 6 mps 764 mmHg 63%
    11:00 +21°C° 0 mm 6 mps 764 mmHg 64%
    12:00 +21°C° 0 mm 6 mps 764 mmHg 64%
    13:00 +21°C° 0 mm 6 mps 764 mmHg 65%
    14:00 +21°C° 0 mm 6 mps 764 mmHg 66%
    15:00 +21°C° 0 mm 5 mps 764 mmHg 67%
    16:00 +21°C° 0 mm 5 mps 764 mmHg 69%
    17:00 +20°C° 0 mm 4 mps 764 mmHg 71%
    18:00 +20°C° 0 mm 3 mps 764 mmHg 73%
    19:00 +19°C° 0 mm 3 mps 765 mmHg 77%
    20:00 +18°C° 0 mm 3 mps 765 mmHg 82%
    21:00 +17°C° 0 mm 3 mps 765 mmHg 86%
    22:00 +17°C° 0 mm 3 mps 765 mmHg 87%
    23:00 +17°C° 0 mm 3 mps 765 mmHg 89%

    19 August, Sunday

    Time Temperature Precipitation Wind Pressure Humidity
    00:00 +17°C° 0 mm 3 mps 765 mmHg 90%
    01:00 +17°C° 0 mm 3 mps 765 mmHg 92%
    02:00 +17°C° 0 mm 3 mps 765 mmHg 93%
    03:00 +17°C° 0 mm 3 mps 765 mmHg 95%
    04:00 +17°C° 0 mm 3 mps 765 mmHg 94%
    05:00 +18°C° 0 mm 4 mps 765 mmHg 93%
    06:00 +18°C° 0 mm 4 mps 765 mmHg 92%
    07:00 +20°C° 0 mm 4 mps 766 mmHg 87%
    08:00 +21°C° 0 mm 4 mps 766 mmHg 82%
    09:00 +22°C° 0 mm 4 mps 766 mmHg 77%
    10:00 +23°C° 0.2 mm 4 mps 766 mmHg 75%
    11:00 +25°C° 0.2 mm 4 mps 766 mmHg 72%
    12:00 +26°C° 0.2 mm 4 mps 766 mmHg 69%
    13:00 +26°C° 0.3 mm 4 mps 766 mmHg 69%
    14:00 +26°C° 0.3 mm 4 mps 765 mmHg 68%
    15:00 +26°C° 0.3 mm 4 mps 765 mmHg 67%
    16:00 +25°C° 0.2 mm 3 mps 765 mmHg 71%
    17:00 +25°C° 0.2 mm 3 mps 765 mmHg 75%
    18:00 +24°C° 0.2 mm 2 mps 765 mmHg 78%
    19:00 +23°C° 0 mm 2 mps 765 mmHg 82%
    20:00 +21°C° 0 mm 1 mps 765 mmHg 86%
    21:00 +20°C° 0 mm 1 mps 766 mmHg 90%
    22:00 +20°C° 0 mm 1 mps 765 mmHg 91%
    23:00 +20°C° 0 mm 1 mps 765 mmHg 92%

    20 August, Monday

    Time Temperature Precipitation Wind Pressure Humidity
    00:00 +19°C° 0 mm 2 mps 765 mmHg 92%
    01:00 +19°C° 0 mm 2 mps 765 mmHg 92%
    02:00 +19°C° 0 mm 2 mps 765 mmHg 92%
    03:00 +18°C° 0 mm 2 mps 764 mmHg 93%
    04:00 +19°C° 0 mm 3 mps 764 mmHg 91%
    05:00 +19°C° 0 mm 3 mps 764 mmHg 90%
    06:00 +19°C° 0 mm 3 mps 764 mmHg 88%
    07:00 +20°C° 0 mm 3 mps 765 mmHg 84%
    08:00 +21°C° 0 mm 3 mps 765 mmHg 79%
    09:00 +22°C° 0 mm 3 mps 765 mmHg 74%
    10:00 +24°C° 0 mm 3 mps 765 mmHg 73%
    11:00 +24°C° 0 mm 3 mps 765 mmHg 73%
    12:00 +25°C° 0 mm 3 mps 765 mmHg 72%
    13:00 +25°C° 0.1 mm 3 mps 764 mmHg 71%
    14:00 +25°C° 0.1 mm 3 mps 764 mmHg 70%
    15:00 +26°C° 0.1 mm 3 mps 764 mmHg 69%
    16:00 +25°C° 0.1 mm 2 mps 764 mmHg 72%
    17:00 +24°C° 0.1 mm 2 mps 764 mmHg 75%
    18:00 +24°C° 0.1 mm 2 mps 764 mmHg 78%
    19:00 +23°C° 0 mm 1 mps 764 mmHg 82%
    20:00 +22°C° 0 mm 1 mps 765 mmHg 87%
    21:00 +20°C° 0 mm 1 mps 765 mmHg 91%
    22:00 +20°C° 0 mm 1 mps 765 mmHg 92%
    23:00 +20°C° 0 mm 1 mps 765 mmHg 92%
    Show more